[[{"header":{"parameterUnit":"m.s-1","parameterCategory":1,"la1":30.2991,"la2":30.254,"lo1":-89.0895,"lo2":-89.0444,"dy":0.0017,"dx":0.0017,"nx":28,"ny":28,"refTime":"2025-09-02T03:00:00:Z","depth":0,"parameterNumber":2,"parameterNumberName":"U-component_of_WINDS"},"data":[0,0,0,0,0,0,0,0,0,0,0,0,0,0,0,0,0,0,0,0,0,0,0,0,0,0,0,0,0,0,0,0,0,0,0,0,0,0,0,0,0,0,0,0,0,0,0,0,0,0,0,0,0,0,0,0,0,0,-1.6747,-1.6747,0,-1.6734,-1.6734,-1.6734,-1.6679,-1.6678,-1.6677,-1.6676,-1.6664,-1.6665,-1.6665,0,0,0,0,0,0,0,0,0,0,0,0,0,-1.6729,-1.6729,-1.6747,-1.6747,-1.6747,-1.6734,-1.6734,-1.6734,-1.668,-1.6678,-1.6677,-1.6675,-1.6664,-1.6665,-1.6666,0,0,0,0,0,0,0,0,0,0,0,0,0,-1.6728,-1.673,-1.6747,-1.6718,-1.6716,-1.6734,-1.6734,-1.6734,-1.668,-1.6678,-1.6676,-1.6674,-1.6663,-1.6664,-1.6666,-1.6711,0,0,-1.667,-1.667,0,0,0,0,0,0,0,0,-1.6729,-1.6729,-1.6723,-1.672,-1.6717,-1.6706,-1.6723,-1.6726,-1.668,-1.6694,-1.6676,-1.6674,-1.668,-1.6679,-1.6681,-1.6711,-1.671,-1.667,-1.667,-1.6671,-1.6671,0,0,0,0,0,0,0,-1.6729,-1.6729,-1.6742,-1.6723,-1.672,-1.6707,-1.6705,-1.6723,-1.6697,-1.6692,-1.6688,-1.6687,-1.6678,-1.668,-1.668,-1.671,-1.667,-1.6671,-1.6672,-1.6672,-1.6778,-1.678,0,0,0,0,0,0,-1.6732,-1.673,-1.6742,-1.6742,-1.6718,-1.6709,-1.6706,-1.6712,-1.6697,-1.6693,-1.6689,-1.6685,-1.6679,-1.6679,-1.668,-1.6733,-1.6671,-1.6672,-1.6673,-1.6776,-1.6778,-1.6781,0,0,0,0,0,0,-1.6732,-1.6734,-1.6743,-1.6735,-1.6735,-1.6711,-1.6718,-1.6713,-1.6715,-1.6695,-1.669,-1.6696,-1.6677,-1.6678,-1.6704,-1.6731,-1.6673,-1.6674,-1.6773,-1.6777,-1.6779,-1.6839,0,0,0,0,0,0,-1.6732,-1.6734,-1.6751,-1.6735,-1.6735,-1.6767,-1.6719,-1.6714,-1.6717,-1.6711,-1.67,-1.6696,-1.6676,-1.6702,-1.6705,-1.6732,-1.6675,-1.6771,-1.6775,-1.6778,-1.6834,-1.6843,-1.6851,0,0,0,0,0,-1.6731,-1.6768,-1.6752,-1.6753,-1.6755,-1.6768,-1.6768,-1.6744,-1.6719,-1.6736,-1.6723,-1.6696,-1.6728,-1.6706,-1.6708,-1.6736,-1.6769,-1.6774,-1.6778,-1.683,-1.6841,-1.6851,0,0,0,0,0,0,-1.6787,-1.6765,-1.6747,-1.6779,-1.6776,-1.6759,-1.6779,-1.6757,-1.6761,-1.6755,-1.6726,-1.6724,-1.6754,-1.6748,-1.6723,-1.678,-1.6744,-1.675,-1.6783,-1.6793,-1.6802,-1.6802,-1.6676,0,0,0,0,0,-1.6803,-1.6815,-1.6795,-1.6826,-1.6825,-1.6803,-1.6808,-1.6789,-1.6785,-1.6783,-1.6772,-1.677,-1.6779,-1.6786,-1.6794,-1.6833,-1.683,-1.6854,-1.6863,-1.687,-1.6874,-1.6896,-1.6906,-1.6796,-1.6796,-1.6796,0,0,-1.6836,-1.6826,-1.6835,-1.6837,-1.6832,-1.6846,-1.6802,-1.6818,-1.6828,-1.6786,-1.6809,-1.6802,-1.6797,-1.6831,-1.6845,-1.6826,-1.6905,-1.6876,-1.6881,-1.6882,-1.6902,-1.6912,-1.6922,-1.6799,-1.6798,-1.6798,0,0,-1.6903,-1.6897,-1.6922,-1.6918,-1.6911,-1.6897,-1.6903,-1.689,-1.6883,-1.6906,-1.6875,-1.6887,-1.6904,-1.6902,-1.6904,-1.6973,-1.6948,-1.6976,-1.702,-1.7042,-1.705,-1.7058,-1.7083,-1.7092,-1.6981,-1.6981,-1.6981,0,-1.6945,-1.6964,-1.6937,-1.6956,-1.6958,-1.6921,-1.6946,-1.6944,-1.6941,-1.6944,-1.6923,-1.6944,-1.6939,-1.6971,-1.6988,-1.6991,-1.6997,-1.6976,-1.7051,-1.7058,-1.7065,-1.7089,-1.7098,-1.6985,-1.6984,-1.6984,-1.6983,0,-1.7016,-1.703,-1.7051,-1.7048,-1.7053,-1.7075,-1.7053,-1.7062,-1.7044,-1.7031,-1.7057,-1.7049,-1.7054,-1.7061,-1.7043,-1.7092,-1.7081,-1.7056,-1.7019,-1.708,-1.7101,-1.711,-1.6989,-1.6988,-1.6987,-1.6986,0,0,-1.7116,-1.71,-1.7108,-1.7107,-1.7098,-1.7108,-1.713,-1.7135,-1.7143,-1.7143,-1.716,-1.7176,-1.7154,-1.7155,-1.7138,-1.7157,-1.7212,-1.713,-1.7129,-1.7145,-1.7266,-1.7284,-1.7295,-1.7197,-1.7198,-1.72,-1.7266,0,-1.718,-1.7214,-1.7192,-1.723,-1.7243,-1.7209,-1.7227,-1.7225,-1.7214,-1.7225,-1.7214,-1.7225,-1.7195,-1.7196,-1.7213,-1.7202,-1.7236,-1.7197,-1.7213,-1.7214,-1.7215,-1.7306,-1.7325,-1.7388,-1.7275,-1.7276,-1.7277,0,-1.7259,-1.7262,-1.7301,-1.7291,-1.7295,-1.7312,-1.7316,-1.7326,-1.7323,-1.7314,-1.7317,-1.7295,-1.7317,-1.7281,-1.7311,-1.7285,-1.729,-1.7286,-1.7288,-1.7288,-1.7249,-1.7308,-1.7408,-1.7417,-1.729,-1.7289,-1.7288,0,-1.7328,-1.7342,-1.7367,-1.7368,-1.7356,-1.7369,-1.7365,-1.736,-1.7365,-1.7369,-1.7372,-1.7379,-1.7383,-1.7389,-1.737,-1.7346,-1.7402,-1.7365,-1.7396,-1.7397,-1.7409,-1.7408,-1.751,-1.7413,-1.7413,-1.7413,-1.7413,0,-1.7401,-1.7427,-1.7398,-1.7414,-1.7442,-1.7417,-1.7446,-1.7439,-1.7435,-1.7449,-1.7421,-1.7435,-1.7409,-1.7422,-1.7407,-1.7434,-1.7436,-1.743,-1.7426,-1.7433,-1.7433,-1.7435,-1.743,-1.7416,-1.7415,-1.7415,-1.7414,0,-1.7482,-1.7464,-1.749,-1.7478,-1.7475,-1.7497,-1.7486,-1.7501,-1.7489,-1.7508,-1.7511,-1.7493,-1.7507,-1.7489,-1.75,-1.749,-1.7527,-1.7517,-1.7528,-1.7525,-1.7557,-1.7554,-1.7663,-1.7677,-1.7572,-1.7573,-1.7574,0,-1.753,-1.7549,-1.7539,-1.7546,-1.7544,-1.7556,-1.7561,-1.7538,-1.7545,-1.7544,-1.7559,-1.757,-1.7577,-1.76,-1.7588,-1.7597,-1.7587,-1.7624,-1.7588,-1.7594,-1.7587,-1.7586,-1.7588,-1.7631,-1.7633,-1.7634,-1.7635,0,-1.7616,-1.7607,-1.7615,-1.7621,-1.7628,-1.7632,-1.7633,-1.7641,-1.7617,-1.7627,-1.764,-1.7645,-1.7657,-1.7669,-1.7675,-1.7672,-1.765,-1.7647,-1.7654,-1.7661,-1.7666,-1.7664,-1.7548,-1.7644,-1.7643,-1.7642,-1.7642,-1.7641,-1.7682,-1.7697,-1.7693,-1.7704,-1.7703,-1.7705,-1.7718,-1.7709,-1.7719,-1.7727,-1.7713,-1.773,-1.7728,-1.7734,-1.7734,-1.7747,-1.7731,-1.7742,-1.7744,-1.7747,-1.7752,-1.7665,-1.7748,-1.7748,-1.7748,-1.7747,-1.7747,0,-1.7767,-1.7763,-1.7773,-1.7776,-1.7785,-1.7763,-1.7764,-1.7773,-1.7788,-1.7788,-1.7796,-1.7812,-1.7823,-1.7813,-1.7823,-1.7836,-1.7826,-1.7839,-1.7838,-1.7837,-1.7766,-1.7759,-1.7847,-1.7847,-1.7847,-1.7847,-1.7847,-1.7847,-1.7812,-1.7837,-1.7828,-1.7853,-1.7849,-1.7864,-1.7867,-1.787,-1.7869,-1.7888,-1.7897,-1.7891,-1.7887,-1.7897,-1.7907,-1.7904,-1.7908,-1.7925,-1.7919,-1.7852,-1.7842,-1.7833,-1.7826,-1.7927,-1.7927,-1.7989,-1.7989,-1.799]},{"header":{"parameterUnit":"m.s-1","parameterCategory":1,"la1":30.2991,"la2":30.254,"lo1":-89.0895,"lo2":-89.0444,"dy":0.0017,"dx":0.0017,"nx":28,"ny":28,"refTime":"2025-09-02T03:00:00:Z","depth":0,"parameterNumber":3,"parameterNumberName":"V-component_of_WINDS"},"data":[0,0,0,0,0,0,0,0,0,0,0,0,0,0,0,0,0,0,0,0,0,0,0,0,0,0,0,0,0,0,0,0,0,0,0,0,0,0,0,0,0,0,0,0,0,0,0,0,0,0,0,0,0,0,0,0,0,0,1.8693,1.8693,0,1.8688,1.8688,1.8688,1.8732,1.8734,1.8735,1.8736,1.8727,1.8726,1.8725,0,0,0,0,0,0,0,0,0,0,0,0,0,1.8738,1.8737,1.8693,1.8693,1.8693,1.8688,1.8688,1.8688,1.8732,1.8734,1.8735,1.8737,1.8728,1.8726,1.8724,0,0,0,0,0,0,0,0,0,0,0,0,0,1.8724,1.8737,1.8693,1.8715,1.8717,1.8688,1.8688,1.8688,1.8732,1.8734,1.8736,1.8737,1.8728,1.8726,1.8724,1.8674,0,0,1.8718,1.8717,0,0,0,0,0,0,0,0,1.8725,1.8723,1.8712,1.8713,1.8715,1.8713,1.8701,1.8683,1.8731,1.8726,1.8736,1.8738,1.8721,1.8719,1.8714,1.8674,1.8673,1.8718,1.8716,1.8715,1.8715,0,0,0,0,0,0,0,1.8726,1.8723,1.8691,1.8711,1.8714,1.8724,1.8724,1.8698,1.8713,1.8727,1.873,1.8729,1.8722,1.8716,1.8714,1.8673,1.8718,1.8716,1.8715,1.8714,1.859,1.8588,0,0,0,0,0,0,1.8725,1.8724,1.8691,1.8691,1.8725,1.8721,1.8721,1.8712,1.8713,1.8715,1.8727,1.8731,1.8719,1.8717,1.8714,1.8654,1.8715,1.8714,1.8712,1.8592,1.859,1.8587,0,0,0,0,0,0,1.8725,1.8721,1.8692,1.8708,1.8705,1.8719,1.8707,1.8711,1.8705,1.8714,1.8716,1.8718,1.872,1.8717,1.8684,1.8655,1.8713,1.8711,1.8594,1.8591,1.8588,1.8534,0,0,0,0,0,0,1.8727,1.8721,1.8703,1.8708,1.8704,1.8662,1.8706,1.8709,1.8701,1.8706,1.8706,1.8708,1.8721,1.8687,1.8682,1.8653,1.8709,1.8597,1.8593,1.8589,1.8539,1.853,1.8522,0,0,0,0,0,1.8728,1.8687,1.8702,1.8698,1.8682,1.866,1.8658,1.8675,1.8699,1.868,1.8686,1.8708,1.8659,1.8683,1.8678,1.8648,1.8599,1.8594,1.859,1.8543,1.8532,1.8523,0,0,0,0,0,0,1.8678,1.8688,1.8704,1.8664,1.8661,1.8668,1.8644,1.8663,1.8652,1.8657,1.8678,1.8677,1.864,1.8641,1.8667,1.8599,1.8633,1.8627,1.8599,1.8589,1.8581,1.858,1.8707,0,0,0,0,0,1.8662,1.8645,1.8655,1.8618,1.8616,1.863,1.8622,1.8635,1.8632,1.8631,1.8634,1.8629,1.8613,1.8601,1.8587,1.854,1.854,1.8517,1.8509,1.8502,1.8496,1.847,1.8459,1.8572,1.8572,1.8572,0,0,1.8629,1.8633,1.8621,1.8608,1.8607,1.8587,1.8629,1.8606,1.8591,1.8627,1.8595,1.8598,1.8594,1.8553,1.8535,1.8553,1.8465,1.8496,1.8491,1.8488,1.8464,1.8453,1.8444,1.8569,1.857,1.857,0,0,1.8559,1.8561,1.853,1.8529,1.8527,1.8537,1.853,1.8534,1.8537,1.8506,1.8532,1.8515,1.8486,1.8482,1.8476,1.8405,1.8424,1.84,1.8356,1.833,1.8321,1.8313,1.8286,1.8276,1.8394,1.8394,1.8394,0,1.8518,1.849,1.8512,1.8487,1.8481,1.8514,1.8482,1.8479,1.8473,1.8467,1.8487,1.8452,1.8452,1.841,1.8392,1.8387,1.8378,1.8399,1.8321,1.8313,1.8306,1.828,1.827,1.8391,1.8392,1.8392,1.8392,0,1.8438,1.8419,1.8394,1.8388,1.8379,1.8351,1.8367,1.8355,1.837,1.8378,1.8345,1.8347,1.8332,1.8324,1.8338,1.8284,1.8295,1.8318,1.8352,1.8292,1.8268,1.8258,1.8387,1.8388,1.8389,1.8389,0,0,1.8334,1.8341,1.8331,1.8328,1.833,1.8314,1.8288,1.8275,1.8264,1.8259,1.8235,1.8211,1.8233,1.8226,1.824,1.8218,1.8159,1.8244,1.8244,1.8226,1.8098,1.8078,1.8067,1.8174,1.8172,1.8171,1.8097,0,1.8263,1.8219,1.8238,1.8191,1.8172,1.8204,1.8181,1.8179,1.8185,1.817,1.8177,1.8158,1.8189,1.8185,1.8165,1.8171,1.8133,1.8177,1.815,1.8149,1.8147,1.8054,1.8034,1.7965,1.8088,1.8087,1.8086,0,1.8175,1.8167,1.8118,1.8122,1.8115,1.8094,1.8083,1.8069,1.8067,1.8073,1.8066,1.8085,1.8058,1.8095,1.8057,1.8086,1.8077,1.8078,1.8076,1.8072,1.8111,1.8045,1.7943,1.7932,1.8071,1.8072,1.8074,0,1.81,1.8078,1.8045,1.8042,1.8047,1.8031,1.8032,1.8032,1.8023,1.8014,1.8008,1.7996,1.7989,1.7978,1.7993,1.8019,1.7953,1.7991,1.7955,1.7955,1.7937,1.7938,1.783,1.7936,1.7936,1.7936,1.7936,0,1.8018,1.7986,1.8012,1.7991,1.7957,1.7979,1.7944,1.7949,1.7948,1.7929,1.7956,1.7937,1.7959,1.7942,1.7954,1.792,1.7917,1.792,1.7923,1.7916,1.7915,1.7908,1.7912,1.7934,1.7934,1.7935,1.7935,0,1.7928,1.7944,1.791,1.7918,1.792,1.7893,1.79,1.7881,1.789,1.7865,1.786,1.7874,1.7855,1.787,1.7851,1.7859,1.7813,1.7825,1.7814,1.7816,1.7779,1.7781,1.766,1.7644,1.7763,1.7762,1.7761,0,1.7873,1.7849,1.7855,1.7845,1.7844,1.7827,1.7818,1.784,1.7829,1.7826,1.7806,1.779,1.7778,1.7746,1.7754,1.7739,1.7749,1.7707,1.7746,1.774,1.7745,1.7745,1.7742,1.7698,1.7697,1.7696,1.7695,0,1.7773,1.7782,1.7769,1.7759,1.7748,1.774,1.7735,1.7725,1.7747,1.7734,1.7715,1.7706,1.7687,1.767,1.7658,1.7658,1.7679,1.7683,1.7674,1.7665,1.7658,1.7659,1.779,1.7685,1.7686,1.7687,1.7687,1.7688,1.7697,1.7677,1.7678,1.7662,1.7661,1.7656,1.7638,1.7646,1.7631,1.7618,1.7632,1.7609,1.7607,1.7594,1.7592,1.7573,1.759,1.7577,1.7573,1.7569,1.7562,1.7664,1.7572,1.7572,1.7572,1.7572,1.7573,0,1.7596,1.7599,1.7585,1.7577,1.7564,1.7588,1.7583,1.757,1.755,1.7548,1.7535,1.7513,1.7497,1.7504,1.749,1.7473,1.7482,1.7468,1.7468,1.7468,1.7549,1.7558,1.7461,1.7461,1.7461,1.7461,1.7461,1.7461,1.7542,1.7509,1.7519,1.7486,1.7488,1.7467,1.7462,1.7456,1.7454,1.7429,1.7416,1.7422,1.7422,1.7408,1.7394,1.7396,1.7388,1.737,1.7376,1.7451,1.7462,1.7472,1.748,1.7369,1.7369,1.7295,1.7295,1.7294]}]]